Regional Weather Roundup
Issued by NWS Pendleton, OR

Home | Current Version | Previous Version | Text Only | Print | Product List | Glossary On
Versions: 1 2 3 4 5 6 7 8 9 10 11 12 13 14 15 16 17 18 19 20 21 22 23 24 25 26 27 28 29 30 31 32 33 34 35 36 37 38 39 40 41 42 43 44 45 46 47 48 49 50
000
ASUS46 KPDT 310710
RWRPDT
PENDLETON REGIONAL WEATHER ROUNDUP
NATIONAL WEATHER SERVICE PENDLETON OREGON
1200 AM PDT SAT JUL 31 2021

NOTE: FAIR INDICATES FEW OR NO CLOUDS BELOW 12,000 FEET WITH NO
SIGNIFICANT WEATHER AND/OR OBSTRUCTIONS TO VISIBILITY.

# INDICATES UNOFFICIAL STATION AND DATA

WAZ520-310810-
EAST SLOPES OF WASHINGTON CASCADES

CITY            SKY/WX      TMP DP  RH  WIND    PRES   REMARKS
#BULLFROG       N/A         71  55  57  CALM    N/A
#EASTON DOT     N/A         75  57  54  CALM    N/A
#ELK HTS DOT    N/A         78  77  97  CALM    N/A
#GLENWOOD       N/A         75  62  64  CALM    29.88S
#NELSON 3SW     N/A         74  51  44  CALM    30.05S
#NILE           N/A         72  55  55  CALM    29.37R
#TROUT LAKE 1NE N/A         73  61  66  CALM    29.88R
#TROUT LAKE 1E  N/A         72  60  66  CALM    30.02R
$$

WAZ521-310810-
SIMCOE HIGHLANDS

CITY            SKY/WX      TMP DP  RH  WIND    PRES   REMARKS
#SATUS PASS DOT N/A         81  41  24  NE1     N/A
#LYLE 6NE       N/A         80  62  54  CALM    29.86S
#PITT 4SE       N/A         82  55  40  CALM    29.86R
$$

WAZ026-310810-
KITTITAS VALLEY

CITY            SKY/WX      TMP DP  RH  WIND    PRES   REMARKS
ELLENSBURG AP   FAIR        82  48  31  MISG    29.99S
#ELLENSBURG CWU N/A         78  57  48  CALM    29.82S
#ELLENSBURG 3NE N/A         79  50  36  N1      28.06F
#ELLENSBURG 1E  N/A         73  61  66  CALM    29.91R
#KITTITAS 3S    N/A         67  62  84  CALM    29.87S
#MANASTASH RDG  N/A         85  48  28  NW6     N/A
#ROCKY CYN DOT  N/A         80  58  47  W7      N/A
#RYEGRASS DOT   N/A         83  51  33  W6      N/A
$$

WAZ027-310810-
YAKIMA VALLEY

CITY            SKY/WX      TMP DP  RH  WIND    PRES   REMARKS
SUNNYSIDE AP    FAIR        75  66  74  N3      29.88S
YAKIMA AIRPORT  FAIR        80  53  39  W7      29.92S
YAKIMA-VAGABOND PTCLDY      85  41  21  CALM    29.93S
#MABTON         N/A         85  56  37  SW5     29.87S
#NACHES 2SW     N/A         78  53  42  N1      29.99S
#OUTLOOK DOT    N/A         81  61  51  CALM    N/A
#PARKER DOT     N/A         92  43  18  S8      N/A    HX 88
#TERRACE HTS    N/A         82  59  46  CALM    29.81R
#TOPPENISH      N/A         82  61  49  CALM    29.76S
#I82 S UMTANUM RN/A         88  52  29  E2      N/A
#UNION GAP DOT  N/A         83  56  40  N5      N/A
#ZILLAH DOT     N/A         80  59  49  W3      N/A
$$

WAZ028-310810-
LOWER COLUMBIA BASIN...WASHINGTON

CITY            SKY/WX      TMP DP  RH  WIND    PRES   REMARKS
PASCO           FAIR        82  61  49  W5      29.85R
PROSSER AWOS    N/A         81  61  51  W3      29.90S
RICHLAND AWOS   FAIR        90  53  28  NW3     29.84S HX 88
#BASIN CITY 5SW N/A         81  59  47  CALM    29.86F
#BENTON CITY    N/A         88  58  36  CALM    29.71S
#CONNELL 5N     N/A         83  46  27  CALM    29.81F
#CONNELL 5NW    N/A         82  51  34  SW1     29.77S
#ELTOPIA 6NW    N/A         83  60  46  CALM    28.86S
#KAHLOTUS       N/A         90  43  20  SW3     29.80S HX 86
#KENNEWICK 3S   N/A         87  54  32  CALM    29.81S
#PROSSER DOT    N/A         83  59  44  CALM    N/A
#SAGEMOOR 2W    N/A         81  63  54  NW5     29.68F
#TOUCHET 2S     N/A         83  59  44  CALM    29.77F
$$

WAZ029-310810-
FOOTHILLS OF THE BLUES...WASHINGTON

CITY            SKY/WX      TMP DP  RH  WIND    PRES   REMARKS
WALLA WALLA AP  MOCLDY      86  44  23  S6      29.88R
#CLYDE 6NW      N/A         88  43  21  NE5     29.78S
#DELANEY DOT    N/A         74  45  35  CALM    N/A
#LOWDEN 2SE     N/A         79  59  50  CALM    29.80S
#PRESCOTT       N/A         80  44  28  CALM    29.78S
#WALLA WALLA 5E N/A         85  46  26  CALM    N/A
#WHITMAN MISSIONN/A         77  59  54  CALM    29.81R
$$

WAZ030-310810-
BLUE MOUNTAINS...WASHINGTON

CITY            SKY/WX      TMP DP  RH  WIND    PRES   REMARKS
$$

ORZ009-041-WAZ024-310810-
COLUMBIA RIVER GORGE

CITY            SKY/WX      TMP DP  RH  WIND    PRES   REMARKS
HOOD RIVER AP   FAIR        73  63  71  CALM    29.92S
THE DALLES AP   MOCLDY      87  62  43  NW14    29.86S
#CELILO DOT     N/A         90  64  42  SW1     N/A    HX 91
#LYLE           N/A         84  64  51  CALM    29.90S
#MARYHILL       N/A         89  51  27  N5      N/A
#RUFUS DOT      N/A         89  59  37  N8      N/A

$$

ORZ510-310810-
NORTH CENTRAL OREGON

CITY            SKY/WX      TMP DP  RH  WIND    PRES   REMARKS
#ANTELOPE       N/A         78  55  45  CALM    29.68F
#COW CYN RST AREN/A         87  39  18  NW5     N/A
#DUFUR          N/A         84  50  31  CALM    29.80F
#DUFUR 9E       N/A         89  45  22  E1      29.87F
#GRASS VALLEY 1SN/A         84  45  26  SW3     29.77S
#KENT DOT       N/A         81  42  25  CALM    N/A
#MORO SCHOOL    N/A         90  46  22  N6      29.85F HX 87
#SHANIKO 5WSW   N/A         84  42  23  NE5     N/A
#WAPANITIA AIRPON/A         84  47  28  W3      29.85F
#WASCO DOT      N/A         88  51  28  S1      N/A
#WASCO 5NE      N/A         90  50  26  W6      29.80F HX 87
$$

ORZ511-310810-
CENTRAL OREGON

CITY            SKY/WX      TMP DP  RH  WIND    PRES   REMARKS
BEND AIRPORT    FAIR        77  50  39  W6      30.11F
MADRAS AIRPORT  PTCLDY      79  46  31  W6      30.03F
PRINEVILLE AP   MOCLEAR     77  45  32  CALM    30.08F
REDMOND AIRPORT FAIR        77  47  35  CALM    30.06F
#ASHWOOD SCHOOL N/A         83  47  28  CALM    29.98F
#BEND-KIM LN    N/A         77  51  40  NW2     29.81F
#CULVER         N/A         79  52  39  CALM    29.34F
#PRINEVILLE     N/A         77  52  42  CALM    29.93F
#WARM SPRINGS   N/A         89  53  29  CALM    29.74S

$$


ORZ509-310810-
EAST SLOPES OF OREGON CASCADES

CITY            SKY/WX      TMP DP  RH  WIND    PRES   REMARKS
SISTERS AWOS    N/A         75  55  50  CALM    30.05F
SUNRIVER AWOS   FAIR        64  54  70  CALM    30.19F
#BLUE BOX PASS  N/A         78  N/A N/A CALM    N/A
#LAVA BUTTE DOT N/A         69  41  36  CALM    N/A
#SISTERS ODOT   N/A         75  51  43  SW1     N/A
#TUMALO 3W      N/A         81  47  30  SW5     29.72F
#WANOGA BUTTE D N/A         69  41  36  N1      N/A

$$

ORZ044-310810-
LOWER COLUMBIA BASIN...OREGON

CITY            SKY/WX      TMP DP  RH  WIND    PRES   REMARKS
HERMISTON       FAIR        87  55  34  W7      29.85S
#BOARDMAN SCHOOLN/A         86  57  37  CALM    29.76R
#ECHO 8SW       N/A         82  59  46  SW5     29.87S
#I-84 EX 198 DOTN/A         86  56  36  NE6     N/A
#UMATILLA       N/A         92  53  27  SE1     29.72S HX 90
$$

ORZ507-310810-
NORTHERN FOOTHILLS OF THE BLUES

CITY            SKY/WX      TMP DP  RH  WIND    PRES   REMARKS
PENDLETON AIRPT FAIR        86  50  29  SE6     29.91S
#ATHENA         N/A         79  48  34  CALM    29.83S
#CAYUSE         N/A         86  51  30  E1      29.78S
#HELIX SCHOOL   N/A         86  45  24  CALM    29.79S
#HELIX 3N       N/A         85  43  23  CALM    29.95S
#HOLDMAN 6E     N/A         86  47  26  N1      29.59F
#M-FREEWATER 5SEN/A         80  52  38  CALM    29.88S
#PDT SUNRIDGE   N/A         84  49  30  CALM    29.85S
#PENDLETON 6SE  N/A         84  49  30  SE3     29.75S
#TUTUILLA       N/A         78  50  38  CALM    29.96S
#UMAPINE 2E     N/A         78  58  50  CALM    29.78S
#WESTON SCHOOL  N/A         86  43  22  W2      29.56S

$$

ORZ508-310810-
SOUTHERN FOOTHILLS OF THE BLUES

CITY            SKY/WX      TMP DP  RH  WIND    PRES   REMARKS
#HEPPNER EOC    N/A         83  47  28  CALM    29.75F
#HEPPNER 4NE    N/A         82  45  27  CALM    29.80F
#OLEX 4N        N/A         88  47  24  CALM    29.81S
#RUGGS 2SW      N/A         85  44  24  S2      29.86S

$$

ORZ502-503-310810-
BLUE MOUNTAINS

CITY            SKY/WX      TMP DP  RH  WIND    PRES   REMARKS
MEACHAM         FAIR        70  46  42  CALM    30.10S
#BATTLE MTN DOT N/A         78  49  36  CALM    N/A
#LADD CYN SMT   N/A         79  48  34  CALM    N/A
#LADD CREEK ODOTN/A         78  49  36  W5      N/A
#N POWDER DOT   N/A         76  52  43  W1      N/A
#TOLLGATE       N/A         78  42  28  CALM    30.20S
#TROY SCHOOL    N/A         75  55  50  CALM    29.69R
#WESTON 4E      N/A         87  45  23  CALM    29.75S
$$

ORZ505-310810-
JOHN DAY BASIN

CITY            SKY/WX      TMP DP  RH  WIND    PRES   REMARKS
JOHN DAY        FAIR        83  45  26  CALM    30.09S
#DAYVILLE SCHOOLN/A         84  49  30  CALM    29.95S
#MITCHELL 8NW   N/A         84  44  25  CALM    29.86R
#MONUMENT HS    N/A         83  46  27  CALM    29.67F
#MT. VERNON 5SE N/A         80  45  29  CALM    30.13R
$$

ORZ506-310810-
OCHOCO AND JOHN DAY HIGHLANDS

CITY            SKY/WX      TMP DP  RH  WIND    PRES   REMARKS
#BUCK CREEK DOT N/A         73  49  43  N5      N/A
#HORSE RIDGE DO N/A         72  44  37  SW1     N/A
#KEYES SMT DOT  N/A         79  44  29  NW6     N/A
#PAULINA ODOT   N/A         74  50  43  CALM    N/A
#PRAIRIE CITY   N/A         71  49  46  CALM    30.03R
#SENECA 9NW     N/A         67  49  52  CALM    29.85S
$$

ORZ049-310810-
GRANDE RONDE VALLEY

CITY            SKY/WX      TMP DP  RH  WIND    PRES   REMARKS
LA GRANDE       FAIR        81  44  27  NW8     30.00S
#COVE SCHOOL    N/A         87  42  21  CALM    30.00S
#COVE 6NW       N/A         91  47  22  N10     29.79S HX 88
#ELGIN 1E       N/A         78  45  31  CALM    N/A
#IMBLER SCHOOL  N/A         80  44  28  CALM    29.97R
#ISLAND CITY 4N N/A         75  62  64  CALM    29.91R
#LADD CYN DOT   N/A         81  51  35  SE10    N/A
#UNION 1S       N/A         84  48  29  CALM    29.80S
$$

ORZ050-310810-
WALLOWA COUNTY

CITY            SKY/WX      TMP DP  RH  WIND    PRES   REMARKS
JOSEPH AIRPORT  FAIR        72  41  33  S5      30.15S
#ENTERPRISE HS  N/A         70  49  47  CALM    29.74S
#IMNAHA SCHOOL  N/A         80  49  34  CALM    29.81R
#JOSEPH 3N      N/A         64  48  56  CALM    30.14S
#LOSTINE        N/A         73  48  41  CALM    29.66S
#LOSTINE 3SE    N/A         71  46  41  CALM    30.16F
#WALLOWA LAKE   N/A         72  49  44  E1      30.20F
#WALLOWA SCHOOL N/A         73  49  43  CALM    29.83R



$$


USA.gov is the U.S. government's official web portal to all federal, state and local government web resources and services.